DG5TKE Weather Reports


time (UTC)temp
C
wind
direction
speed
KPH
gust
KPH
rain 1hr
cm
rain 24hr
cm
rain mn
cm
humidity
%
barometer
mb
20260504183006 15 282 6.4 12.9 0.10 0.10 0.10 87 1009.3
20260504182220 15 291 4.8 12.9 0.10 0.10 0.10 85 1009.3
20260504181003 16 298 4.8 8.0 0.08 0.08 0.08 83 1009.3
20260504180003 16 280 4.8 16.1 0.05 0.05 0.05 80 1009.1
20260504175006 17 282 4.8 9.7 0.05 0.05 0.05 79 1008.9
20260504174003 18 278 6.4 12.9 0.05 0.05 0.05 75 1008.7
20260504173220 18 271 3.2 11.3 0.00 0.00 0.00 70 1008.8
20260504172003 20 359 1.6 6.4 0.00 0.00 0.00 63 1008.5
20260504171006 20 355 1.6 4.8 0.00 0.00 0.00 63 1008.7
20260504170220 20 333 1.6 6.4 0.00 0.00 0.00 61 1008.6
20260504160221 21 22 6.4 14.5 0.00 0.00 0.00 57 1008.7
20260504150217 22 21 4.8 17.7 0.00 0.00 0.00 53 1008.9
20260504141217 22 10 6.4 17.7 0.00 0.00 0.00 51 1009.2
20260504082003 20 296 6.4 19.3 0.00 0.00 0.00 52 1011.4
20260504081003 20 272 4.8 12.9 0.00 0.00 0.00 52 1011.3
20260504060217 14 0 0.0 0.0 0.00 0.00 0.00 73 1010.9
20260504050003 13 235 3.2 6.4 0.00 0.00 0.00 73 1010.6
20260504045003 13 225 1.6 6.4 0.00 0.00 0.00 74 1010.5
20260504044003 13 297 0.0 4.8 0.00 0.00 0.00 73 1010.4
20260504043003 13 0 0.0 0.0 0.00 0.00 0.00 73 1010.3
20260504042003 13 0 0.0 0.0 0.00 0.00 0.00 73 1010.2
20260504041003 13 0 0.0 0.0 0.00 0.00 0.00 72 1010.1
20260504040003 13 344 1.6 3.2 0.00 0.00 0.00 71 1010.2
20260504035003 13 312 0.0 3.2 0.00 0.00 0.00 71 1010.2
20260504034217 13 231 0.0 1.6 0.00 0.00 0.00 71 1010.2
20260504033003 13 211 1.6 4.8 0.00 0.00 0.00 71 1010.2
20260504032003 13 236 3.2 4.8 0.00 0.00 0.00 70 1010.3
20260504031006 13 238 1.6 4.8 0.00 0.00 0.00 72 1010.3
20260504030003 13 271 1.6 4.8 0.00 0.00 0.00 72 1010.3
20260504025003 13 0 0.0 4.8 0.00 0.00 0.00 72 1010.3
20260504024006 13 0 0.0 3.2 0.00 0.00 0.00 72 1010.2
20260504023003 13 198 1.6 3.2 0.00 0.00 0.00 71 1010.2
20260504022003 13 232 3.2 4.8 0.00 0.00 0.00 71 1010.2
20260504021218 13 221 1.6 4.8 0.00 0.00 0.00 71 1010.3
20260504020006 14 171 1.6 8.0 0.00 0.00 0.00 69 1010.4
20260504015003 14 220 1.6 4.8 0.00 0.00 0.00 68 1010.4
20260504014003 14 240 3.2 4.8 0.00 0.00 0.00 66 1010.4
20260504013003 14 247 3.2 6.4 0.00 0.00 0.00 67 1010.4
20260504012220 14 244 3.2 4.8 0.00 0.00 0.00 67 1010.4
20260504011006 14 322 3.2 4.8 0.00 0.00 0.00 68 1010.5
20260504010006 15 338 1.6 4.8 0.00 0.00 0.00 68 1010.3
20260504005003 15 255 1.6 6.4 0.00 0.00 0.00 65 1010.4
20260504004006 14 227 4.8 8.0 0.00 0.00 0.00 65 1010.5
20260504003006 14 108 1.6 9.7 0.00 0.00 0.00 68 1010.4
20260504002003 14 136 0.0 1.6 0.00 0.00 0.00 67 1010.1
20260504001003 14 209 1.6 3.2 0.00 0.00 0.00 66 1010.4
20260504000006 14 182 1.6 4.8 0.00 0.00 0.00 65 1010.4
20260503235006 15 203 3.2 6.4 0.00 0.00 0.00 65 1010.4
20260503234003 15 188 3.2 8.0 0.00 0.00 0.00 65 1010.3
20260503233006 15 198 1.6 6.4 0.00 0.00 0.00 64 1010.2
20260503232011 15 199 1.6 3.2 0.00 0.00 0.00 64 1010.2
20260503231006 15 225 1.6 4.8 0.00 0.00 0.00 64 1010.2
20260503230003 15 0 0.0 0.0 0.00 0.00 0.00 63 1010.2
20260503225217 15 0 0.0 0.0 0.00 0.00 0.00 62 1010.2
20260503224006 15 187 1.6 1.6 0.00 0.00 0.00 61 1010.2
20260503223006 16 199 0.0 4.8 0.00 0.00 0.00 61 1010.0
20260503222006 16 0 0.0 1.6 0.00 0.00 0.00 60 1009.9
20260503221006 16 0 0.0 1.6 0.00 0.00 0.00 59 1009.7
20260503220003 16 317 0.0 3.2 0.00 0.00 0.00 58 1009.7
20260503215003 16 227 1.6 4.8 0.00 0.00 0.00 57 1009.8
20260503214006 17 191 1.6 4.8 0.00 0.00 0.00 57 1009.6
20260503213003 17 0 0.0 3.2 0.00 0.00 0.00 55 1009.6
20260503212006 17 284 1.6 3.2 0.00 0.00 0.00 53 1009.4
20260503211003 17 280 1.6 3.2 0.00 0.00 0.00 51 1009.4
20260503210220 17 286 1.6 4.8 0.00 0.00 0.00 51 1009.4
20260503205006 17 0 0.0 3.2 0.00 0.00 0.00 52 1009.3
20260503204218 17 267 0.0 1.6 0.00 0.00 0.00 51 1009.2
20260503203003 18 276 3.2 6.4 0.00 0.00 0.00 51 1009.1
20260503202006 18 276 3.2 6.4 0.00 0.00 0.00 49 1009.1
20260503201008 18 284 4.8 6.4 0.00 0.00 0.00 50 1009.0
20260503200003 18 289 4.8 6.4 0.00 0.00 0.00 50 1009.0
20260503195006 18 287 3.2 6.4 0.00 0.00 0.00 49 1009.0
20260503194008 18 290 3.2 6.4 0.00 0.00 0.00 47 1009.0
20260503193008 19 292 4.8 6.4 0.00 0.00 0.00 47 1008.8
20260503192007 19 290 4.8 8.0 0.00 0.00 0.00 46 1008.7
20260503191003 20 294 6.4 11.3 0.00 0.00 0.00 45 1008.6
20260503190003 20 297 6.4 12.9 0.00 0.00 0.00 46 1008.6
20260503185006 20 293 4.8 11.3 0.00 0.00 0.00 44 1008.5
20260503184006 20 288 4.8 9.7 0.00 0.00 0.00 44 1008.5